Showing default

COSMOS 1913, 18792

Orbit data source: Space-Track

COSMOS 1913, 18792 is a payload satellite owned by UNKS (CIS) in LEO that was launched on Fri, 15 Jan 1988 UTC via a TSIKLON-3 launch vehicle from the Plesetsk Missile And Space Complex (PKMTR). Payload-class satellites include a variety of spacecraft equipped with specific instruments for various scientific and technological missions. These include communications satellites like Starlink; space stations such as the ISS; scientific satellites like the Hubble; Earth observation satellites from companies like Planet Labs, Umbra, and HawkEye 360; GPS; miniature CubeSats for education and research; and military/defense satellites.

Loading next visibility...
Identifier
18792, 1988-002E
Orbit
LEO
Country
Flag of CISCIS
Related business
Manufacturer
NPO PM
Mission
Defense Communications
Bus & Motor
STRELA-3, Unknown motor
Mass
225 kg wet, 225 kg dry
Launch date (UTC)
1988-01-15 (38 years ago)
Launch vehicle
TSIKLON-3
Launch site
Plesetsk Missile And Space Complex (PKMTR)
Object type
Payload
Rocket body
Debris
Shape & HBR
Cyl, 0.8 m
Radar Cross Section
1.257 m², Medium (>0.1 m² and < 1m²)

Expand to show TLE details & history
Last TLE update: 8 hours ago

TLE from 8 hours ago
0 COSMOS 1913
1 18792U 88002E   25351.91289050  .00000023  00000-0  63062-4 0  9991
2 18792  82.5998 332.7226 0014580 118.3358 303.1415 12.65742279751827
Epoch: 2025-12-17T21:54Z
TLE epoch observation values (Epoch: 2025-12-17T21:54:33.739Z)
Latitude
60.56379°
Longitude
-69.45437°
Altitude
1,403.426 km
Speed
7.167 km/s
True Right ascension
23h 03m 50s
True Declination
60° 25' 43"
Sunlit
Object was in daylight at epoch
Visualization orbit readout
Latitude
Unknown
Longitude
Unknown
Altitude
Unknown
Speed
Unknown
Apparent Right ascension
Unknown
Apparent Declination
Unknown
Sunlit
N/A
Visualization observer readout
Local Sidereal Time
04:50:25
Azimuth
Unknown
Elevation
Unknown
Doppler factor
Unknown
Orbital elements
Apogee altitude
1,407.983 km
Perigee altitude
1,385.312 km
Semi-major axis
7,774.785 km
Eccentricity
0.00146
Inclination
82.5998°
RAAN
332.7226°
Arg. of periapsis
118.3358°
True anomaly
303.00147°
Mean anomaly
303.1415°
Eccentric anomaly
303.0715°
Mean motion
3.166 °/min
Orbital period
113.71 mins
BSTAR
0.000063062
Loading maneuver chart data...
Computing Atmospheric mass density...
Loading historical data...
Loading historical data...
Loading historical data...
Loading historical data...
Loading historical data...
Loading historical data...
Loading historical data...

Documentation

Showing up to 5 results
|